Rhodes, Greece

6:27 AM EEST on September 29, 2016 (GMT +0300)
Diagoras

Weather History for LGRP - May, 2013

Change the Weather History Date:

Friday, May 3, 2013

  Actual Average Record
Temperature  
Mean Temperature 71 °F -  
Max Temperature 77 °F 71 °F 78 °F (1998)
Min Temperature 65 °F 60 °F 57 °F (1997)
Cooling Degree Days 6    
Growing Degree Days 21 (Base 50)    
Moisture  
Dew Point 64 °F    
Average Humidity 82    
Maximum Humidity 88    
Minimum Humidity 69    
Precipitation  
Precipitation 0.00 in - - ()
Sea Level Pressure  
Sea Level Pressure 29.80 in    
Wind  
Wind Speed 10 mph ()    
Max Wind Speed 18 mph    
Max Gust Speed -    
Visibility 6.2 miles    
Events      
Averages and records for this station are not official NWS values.
T = Trace of Precipitation, MM = Missing Value Source: Averaged Metar Reports

Daily Weather History Graph

Daily Weather History Graph

Search for Another Location

Airport or City:

Trip Planner

Search our weather history database for the weather conditions in past years. The results will help you decide how hot, cold, wet, or windy it might be!

Date:

Astronomy

May. 03, 2013 Rise Set
Actual Time 6:12 AM EEST 7:57 PM EEST
Civil Twilight 5:44 AM EEST 8:25 PM EEST
Nautical Twilight 5:11 AM EEST 8:58 PM EEST
Astronomical Twilight 4:35 AM EEST 9:34 PM EEST
Moon 2:13 AM EEST (5/3) 1:41 PM EEST (5/3)
Length of Visible Light 14h 40m
Length of Day
13h 44m
Last Quarter, 40% of the Moon is Illuminated
May 3
Last Quarter
May 10
New
May 18
First Quarter
May 25
Full
May 31
Last Quarter

Hourly Weather History & Observations

Time (EEST) Temp. Dew Point Humidity Pressure Visibility Wind Dir Wind Speed Gust Speed Precip Events Conditions
12:20 AM 69.8 °F 60.8 °F 73% 29.80 in 6.2 mi West 6.9 mph - N/A   Scattered Clouds
12:50 AM 68.0 °F 62.6 °F 83% 29.80 in 6.2 mi WSW 5.8 mph - N/A   Scattered Clouds
1:20 AM 68.0 °F 62.6 °F 83% 29.80 in 6.2 mi WSW 10.4 mph - N/A   Scattered Clouds
1:50 AM 68.0 °F 62.6 °F 83% 29.77 in - SW 10.4 mph - N/A   Clear
2:20 AM 68.0 °F 62.6 °F 83% 29.77 in - WSW 8.1 mph - N/A   Clear
2:50 AM 68.0 °F 60.8 °F 78% 29.80 in - SW 6.9 mph - N/A   Clear
3:00 AM 69 °F 61 °F 69% 29.80 in 6 mi SW 6.9 mph - -   Clear
3:20 AM 68.0 °F 60.8 °F 78% 29.80 in - SW 11.5 mph - N/A   Clear
3:50 AM 68.0 °F 62.6 °F 83% 29.77 in - SW 12.7 mph - N/A   Clear
4:20 AM 68.0 °F 62.6 °F 83% 29.77 in - WSW 6.9 mph - N/A   Clear
4:50 AM 66.2 °F 62.6 °F 88% 29.77 in - WSW 8.1 mph - N/A   Clear
5:20 AM 66.2 °F 62.6 °F 88% 29.77 in - SW 10.4 mph - N/A   Clear
5:50 AM 66.2 °F 62.6 °F 88% 29.77 in - SW 12.7 mph - N/A   Clear
6:20 AM 66.2 °F 62.6 °F 88% 29.77 in - SW 10.4 mph - N/A   Clear
6:50 AM 66.2 °F 60.8 °F 83% 29.77 in - SW 11.5 mph - N/A   Clear
7:20 AM 66.2 °F 60.8 °F 83% 29.77 in - SW 11.5 mph - N/A   Clear
7:50 AM 68.0 °F 64.4 °F 88% 29.80 in - SW 11.5 mph - N/A   Clear
8:20 AM 69.8 °F 66.2 °F 88% 29.80 in - WSW 10.4 mph - N/A   Clear
8:50 AM 69.8 °F 66.2 °F 88% 29.80 in - WSW 12.7 mph - N/A   Clear
9:00 AM 71 °F 66 °F 80% 29.81 in 6 mi WSW 12.7 mph - -   Clear
9:20 AM 69.8 °F 66.2 °F 88% 29.80 in - WSW 11.5 mph - N/A   Clear
9:50 AM 71.6 °F 66.2 °F 83% 29.80 in - WSW 12.7 mph - N/A   Clear
10:20 AM 71.6 °F 66.2 °F 83% 29.80 in - WSW 13.8 mph - N/A   Clear
10:50 AM 71.6 °F 68.0 °F 88% 29.80 in - WSW 12.7 mph - N/A   Clear
11:20 AM 71.6 °F 68.0 °F 88% 29.80 in 6.2 mi WSW 12.7 mph - N/A   Partly Cloudy
11:50 AM 73.4 °F 68.0 °F 83% 29.83 in 6.2 mi WSW 16.1 mph - N/A   Partly Cloudy
12:20 PM 73.4 °F 68.0 °F 83% 29.83 in 6.2 mi WSW 16.1 mph - N/A   Partly Cloudy
12:50 PM 73.4 °F 68.0 °F 83% 29.83 in 6.2 mi WSW 15.0 mph - N/A   Partly Cloudy
1:20 PM 73.4 °F 68.0 °F 83% 29.83 in 6.2 mi WSW 15.0 mph - N/A   Partly Cloudy
1:50 PM 75.2 °F 66.2 °F 73% 29.80 in 6.2 mi WSW 18.4 mph - N/A   Partly Cloudy
2:20 PM 75.2 °F 66.2 °F 73% 29.80 in 6.2 mi WSW 18.4 mph - N/A   Partly Cloudy
2:50 PM 75.2 °F 68.0 °F 78% 29.80 in 6.2 mi WSW 17.3 mph - N/A   Partly Cloudy
3:00 PM 75 °F 67 °F 70% 29.81 in 6 mi WSW 17.3 mph - -   Scattered Clouds
3:20 PM 75.2 °F 68.0 °F 78% 29.80 in 6.2 mi WSW 17.3 mph - N/A   Partly Cloudy
3:50 PM 77.0 °F 69.8 °F 78% 29.77 in 6.2 mi WSW 16.1 mph - N/A   Partly Cloudy
4:20 PM 77.0 °F 69.8 °F 78% 29.77 in 6.2 mi WSW 16.1 mph - N/A   Partly Cloudy
4:50 PM 73.4 °F 64.4 °F 73% 29.77 in 6.2 mi West 12.7 mph - N/A   Partly Cloudy
5:20 PM 73.4 °F 64.4 °F 73% 29.77 in 6.2 mi West 12.7 mph - N/A   Partly Cloudy
5:50 PM 73.4 °F 68.0 °F 83% 29.77 in 6.2 mi WSW 16.1 mph - N/A   Partly Cloudy
6:20 PM 73.4 °F 68.0 °F 83% 29.77 in 6.2 mi WSW 16.1 mph - N/A   Partly Cloudy
6:50 PM 69.8 °F 66.2 °F 88% 29.80 in 6.2 mi WSW 17.3 mph - N/A   Scattered Clouds
7:20 PM 69.8 °F 66.2 °F 88% 29.80 in 6.2 mi WSW 17.3 mph - N/A   Scattered Clouds
7:50 PM 69.8 °F 64.4 °F 83% 29.80 in 6.2 mi SW 11.5 mph - N/A   Mostly Cloudy
8:50 PM 68.0 °F 62.6 °F 83% 29.80 in 6.2 mi WSW 10.4 mph - N/A   Mostly Cloudy
9:20 PM 68.0 °F 62.6 °F 83% 29.80 in 6.2 mi WSW 10.4 mph - N/A   Mostly Cloudy
9:50 PM 66.2 °F 59.0 °F 78% 29.83 in 6.2 mi WSW 12.7 mph - N/A   Mostly Cloudy
10:20 PM 66.2 °F 59.0 °F 78% 29.83 in 6.2 mi WSW 12.7 mph - N/A   Mostly Cloudy
10:50 PM 66.2 °F 60.8 °F 83% 29.83 in 6.2 mi SW 11.5 mph - N/A   Mostly Cloudy
11:20 PM 66.2 °F 60.8 °F 83% 29.83 in 6.2 mi WSW 11.5 mph - N/A   Mostly Cloudy
11:50 PM 66.2 °F 60.8 °F 83% 29.83 in 6.2 mi SW 11.5 mph - N/A   Mostly Cloudy